This is the latest recevied weather packets stored in our database for station/object N6RDS-8. If no packets are shown the sender has not sent any weather packets the latest 1 day(s).
| Time | Temp. | Humidity | Pressure | Rain* | Wind** | Luminosity | Snow |
|---|---|---|---|---|---|---|---|
| 1778050468 | 10.56° C | 62% | 1018.5 hPa | 0 mm | - | 0 W/m² | - |
| 1778050164 | 10.56° C | 61% | 1018.5 hPa | 0 mm | - | 0 W/m² | - |
| 1778049255 | 11.11° C | 61% | 1018.5 hPa | 0 mm | - | 0 W/m² | - |
| 1778048651 | 11.11° C | 60% | 1018.2 hPa | 0 mm | - | 0 W/m² | - |
| 1778047439 | 12.22° C | 56% | 1018.1 hPa | 0 mm | - | 0 W/m² | - |
| 1778046226 | 13.33° C | 53% | 1018.2 hPa | 0 mm | - | 0 W/m² | - |
| 1778045621 | 13.89° C | 53% | 1018.2 hPa | 0 mm | - | 0 W/m² | - |
| 1778045319 | 13.89° C | 53% | 1018 hPa | 0 mm | - | 0 W/m² | - |
| 1778044715 | 13.89° C | 51% | 1018 hPa | 0 mm | - | 0 W/m² | - |
| 1778044411 | 14.44° C | 51% | 1017.8 hPa | 0 mm | - | 0 W/m² | - |
| 1778043502 | 15° C | 49% | 1017.8 hPa | 0 mm | - | 0 W/m² | - |
| 1778042896 | 15.56° C | 48% | 1017.6 hPa | 0 mm | - | 0 W/m² | - |
| 1778042593 | 15.56° C | 48% | 1017.5 hPa | 0 mm | - | 0 W/m² | - |
| 1778042291 | 15.56° C | 47% | 1017.5 hPa | 0 mm | - | 0 W/m² | - |
| 1778041687 | 15.56° C | 47% | 1017.5 hPa | 0 mm | - | 0 W/m² | - |
| 1778040780 | 15.56° C | 47% | 1017.1 hPa | 0 mm | - | 0 W/m² | - |
| 1778040477 | 15.56° C | 47% | 1017.2 hPa | 0 mm | - | 0 W/m² | - |
| 1778039871 | 15.56° C | 46% | 1017 hPa | 0 mm | - | 0 W/m² | - |
| 1778039568 | 16.11° C | 46% | 1016.9 hPa | 0 mm | - | 0 W/m² | - |
| 1778039265 | 16.11° C | 46% | 1016.9 hPa | 0 mm | - | 0 W/m² | - |
| 1778038659 | 16.11° C | 46% | 1016.7 hPa | 0 mm | - | 0 W/m² | - |
| 1778038052 | 16.67° C | 45% | 1016.7 hPa | 0 mm | - | 0 W/m² | - |
| 1778037749 | 16.67° C | 44% | 1016.7 hPa | 0 mm | - | 0 W/m² | - |
| 1778037446 | 16.67° C | 43% | 1016.6 hPa | 0 mm | - | 0 W/m² | - |
| 1778037143 | 16.67° C | 42% | 1016.5 hPa | 0 mm | - | 0 W/m² | - |
* Rain latest hour (hover to see other rain measurements)
** Current wind speed in m/s (hover to see current wind gust speed)